sat.trackr.live / text

‹ back to catalog

STARLINK-37557

NORAD 69231 · 2026-115W

PAYLOAD ACTIVE UNKNOWN

§ Identity

Operator
Country
US
Launch date
2026-05-26
Launch site
AFWTR
Launch vehicle
Mass (kg)
RCS (m²)

Purposes: comms

External: N2YO · Heavens-Above · Gunter

§ Orbital elements

Epoch: 2026-09-20T00:54:03.617568Z

Period
93.90 min
Inclination
97.2832°
Eccentricity
0.0001760
Mean motion
15.33519691 rev/d
Perigee alt
464.1 km
Apogee alt
466.5 km
Semi-major
6,843.5 km
B*
1.1372e-3
RAAN
279.1989°
Arg perigee
81.7759°
Mean anomaly
278.3683°
Rev number
1,922

§ Raw data

STARLINK-375571 69231U 26115W   26263.03754187  .00036904  00000+0  11372-2 0  99972 69231  97.2832 279.1989 0001760  81.7759 278.3683 15.33519691 19224

JSON: /api/v1/satellites/69231 · /tle

For live sub-satellite position, see the globe view (requires WebGL).

§ Visibility from observer

Set your observer location to see the next 7 days of passes ≥ 10°. The values pass through the URL so the page stays shareable.

No JS? Fill the form by hand. The geolocation button needs JavaScript.